#timestamp,LO_Frequency,Hit,StdDev 
1652097615.8,286047000.0,N
1652097635.6,286047002.7,N
1652097655.4,286046999.9,N
1652097675.3,286046999.9,N
1652097695.1,286047001.0,N
1652097715.9,286047001.1,N
1652097735.7,286047001.1,N
1652097755.5,286046998.1,N
1652097775.4,286046998.6,N
1652097795.2,286047000.7,N
1652097815.0,286047001.0,N
1652097815.9,286047001.0,N
1652097835.8,286047000.8,N
1652097855.6,286046999.4,N
1652097875.5,286046999.4,N
1652097895.3,286046998.3,N
1652097915.1,286046997.3,N
1652097935.9,286046997.3,N
1652097955.7,286046999.4,N
1652097975.5,286046998.9,N
1652097995.4,286046999.4,N
1652098015.2,286046998.3,N
1652098035.1,286046999.1,N
1652098036.0,286046999.1,N
1652098055.8,286046998.6,N
1652098075.6,286046999.3,N
1652098095.5,286047001.2,N
1652098115.3,286047001.2,N
1652098135.1,286046998.5,N
1652098155.9,286046998.8,N
1652098175.7,286046998.5,N
1652098195.6,286046998.2,N
1652098215.4,286047000.7,N
1652098235.2,286047001.1,N
1652098255.1,286047000.8,N
1652098256.0,286047000.8,N
1652098275.8,286047000.3,N
1652098295.7,286046999.7,N
1652098315.5,286047002.8,N
1652098335.3,286047002.7,N
1652098355.2,286046999.7,N
1652098375.9,286046999.8,N
1652098395.7,286046999.8,N
1652098415.6,286047002.4,N
1652098435.4,286047004.0,N
1652098455.3,286047002.0,N
1652098475.1,286047001.5,N
1652098476.0,286047001.5,N
1652098495.8,286047003.9,N
1652098515.7,286047003.3,N
1652098535.5,286047004.2,N
1652098555.3,286047004.4,N
1652098575.2,286047001.8,N
1652098595.0,286047002.5,N
1652098595.9,286047002.5,N
1652098615.8,286047002.4,N
1652098635.6,286047000.6,N
1652098655.4,286047001.0,N
1652098675.3,286046998.1,N
1652098695.1,286046998.2,N
1652098715.9,286047000.2,N
1652098735.7,286046999.8,N
1652098755.5,286047000.4,N
1652098775.4,286046999.9,N
1652098795.2,286047000.0,N
1652098815.1,286046998.6,N
1652098816.0,286046998.6,N
1652098835.8,286046998.2,N
1652098855.6,286046999.0,N
1652098875.5,286046999.9,N
1652098895.3,286047000.0,N
1652098915.1,286046998.3,N
1652098935.9,286047000.8,N
1652098955.7,286046999.3,N
1652098975.6,286046999.9,N
1652098995.4,286047002.8,N
1652099015.2,286047002.7,N
1652099035.1,286047001.8,N
1652099036.0,286047001.8,N
1652099055.8,286047002.1,N
1652099075.7,286047001.5,N
1652099095.5,286047004.0,N
1652099115.3,286047004.4,N
1652099135.2,286047001.7,N
1652099155.0,286047001.3,N
1652099155.9,286047001.3,N
1652099175.8,286047001.5,N
1652099195.6,286047004.1,N
1652099215.4,286047004.3,N
1652099235.3,286047004.0,N
1652099255.1,286047001.9,N
1652099275.8,286047001.7,N
1652099295.7,286047001.8,N
1652099315.5,286047001.7,N
1652099335.4,286047002.0,N
1652099355.2,286047002.5,N
1652099375.0,286047000.2,N
1652099375.9,286047000.2,N
1652099395.8,286047002.4,N
1652099415.6,286047001.8,N
1652099435.5,286047001.7,N
1652099455.3,286047004.4,Y
1652099475.1,286047000.7,P
1652099495.9,286046998.6,N
1652099515.7,286046998.4,N
1652099535.5,286047000.5,N
1652099555.4,286046999.9,N
1652099575.2,286047000.1,N
1652099595.1,286047000.2,N
1652099596.0,286047000.2,N
1652099615.8,286047000.1,N
1652099635.6,286047000.2,N
1652099655.5,286046999.9,N
1652099675.3,286047000.4,N
1652099695.1,286046999.9,N
1652099715.0,286047000.7,N
1652099715.9,286047000.7,N
1652099735.7,286046999.8,N
1652099755.6,286047000.0,N
1652099775.4,286047002.8,Y
1652099795.3,286047002.1,P
1652099815.1,286047001.6,N
1652099816.0,286047001.6,N
1652099835.8,286047001.4,N
1652099855.7,286047001.4,N
1652099875.5,286047002.1,Y
1652099895.3,286047000.0,P
1652099915.2,286047001.1,N
1652099935.0,286047001.1,N
1652099935.9,286047001.1,N
1652099955.8,286046998.3,Y
1652099975.6,286046999.6,P
1652099995.5,286046999.5,N
1652100015.3,286046999.1,N
1652100035.1,286046997.0,Y
1652100055.9,286046996.7,P
1652100075.7,286046996.8,N
1652100095.5,286046999.5,N
1652100115.4,286046996.9,N
1652100135.2,286046998.6,N
1652100155.1,286046998.6,N
1652100156.0,286046998.6,N
1652100175.8,286046998.4,N
1652100195.6,286046998.8,N
1652100215.5,286046998.1,N
1652100235.3,286046998.8,N
1652100255.2,286046998.4,N
1652100275.9,286046998.3,N
1652100295.7,286046998.3,N
1652100315.6,286047001.0,N
1652100335.4,286046999.2,N
1652100355.2,286046998.8,N
1652100375.1,286046999.3,N
1652100376.0,286046999.3,N
1652100395.8,286046998.8,N
1652100415.7,286047001.1,N
1652100435.5,286046998.5,N
1652100455.3,286047001.0,N
1652100475.2,286047000.6,N
1652100495.0,286047000.6,N
1652100495.9,286047000.6,N
1652100515.8,286047000.1,N
1652100535.6,286047002.3,N
1652100555.4,286047000.5,N
1652100575.3,286047000.8,N
1652100595.1,286046998.5,N
1652100615.9,286046998.6,N
1652100635.7,286046998.4,N
1652100655.5,286046999.3,N
1652100675.4,286046998.6,N
1652100695.2,286047001.1,N
1652100715.0,286046998.2,N
1652100716.0,286046998.2,N
1652100735.8,286047001.2,N
1652100755.6,286046998.1,N
1652100775.5,286047000.6,N
1652100795.3,286046997.0,N
1652100815.1,286046997.3,N
1652100835.9,286046997.2,N
1652100855.7,286046998.7,N
1652100875.6,286046999.3,N
1652100895.4,286046997.2,N
1652100915.2,286046996.5,N
1652100935.1,286046996.7,N
1652100936.0,286046996.7,N
1652100955.8,286046997.0,N
1652100975.7,286046996.5,N
1652100995.5,286046999.2,N
1652101015.3,286047000.9,N
1652101035.2,286046998.6,N
1652101055.0,286046998.3,N
1652101055.9,286046998.3,N
1652101075.7,286046998.9,N
1652101095.6,286046999.3,N
1652101115.4,286046998.8,N
1652101135.3,286047001.2,N
1652101155.1,286047000.1,N
1652101156.0,286047000.1,N
1652101175.8,286047000.6,N
1652101195.7,286047000.4,N
